Time,TemperatureF,DewpointF,PressureIn,WindDirection,WindDirectionDegrees,WindSpeedMPH,WindSpeedGustMPH,Humidity,HourlyPrecipIn,Conditions,Clouds,dailyrainin,SoftwareType,DateUTC
2013-04-18 00:03:00,74.1,66.4,29.52,SE,138,0.0,11.0,77,0.00,,,0.00,meteohub,2013-04-18 05:03:00,
2013-04-18 00:08:00,74.1,66.4,29.52,SSE,149,0.0,11.0,77,0.00,,,0.00,meteohub,2013-04-18 05:08:00,
2013-04-18 00:13:00,74.1,66.7,29.52,SE,134,0.0,9.0,78,0.00,,,0.00,meteohub,2013-04-18 05:13:00,
2013-04-18 00:18:00,73.9,66.6,29.52,South,170,0.0,9.0,78,0.00,,,0.00,meteohub,2013-04-18 05:18:00,
2013-04-18 00:23:00,73.9,66.6,29.51,ESE,117,9.0,9.0,78,0.00,,,0.00,meteohub,2013-04-18 05:23:00,
2013-04-18 00:28:00,73.9,67.1,29.52,SSE,159,0.0,9.0,79,0.00,,,0.00,meteohub,2013-04-18 05:28:00,
2013-04-18 00:33:00,73.9,67.1,29.52,SSE,155,0.0,11.0,79,0.00,,,0.00,meteohub,2013-04-18 05:33:00,
2013-04-18 00:38:00,73.9,67.1,29.52,SSW,206,1.0,11.0,79,0.00,,,0.00,meteohub,2013-04-18 05:38:00,
2013-04-18 00:43:00,73.9,67.1,29.52,South,174,0.0,11.0,79,0.00,,,0.00,meteohub,2013-04-18 05:43:00,
2013-04-18 00:48:00,73.9,67.5,29.52,SE,144,0.0,11.0,80,0.00,,,0.00,meteohub,2013-04-18 05:48:00,
2013-04-18 00:53:00,73.9,67.5,29.52,South,188,2.0,12.0,80,0.00,,,0.00,meteohub,2013-04-18 05:53:00,
2013-04-18 00:58:00,73.9,67.5,29.52,SSE,148,0.0,12.0,80,0.00,,,0.00,meteohub,2013-04-18 05:58:00,
2013-04-18 01:03:00,73.8,67.3,29.52,SSE,151,4.0,12.0,80,0.00,,,0.00,meteohub,2013-04-18 06:03:00,
2013-04-18 01:08:00,73.8,67.3,29.53,SSE,167,0.0,12.0,80,0.00,,,0.00,meteohub,2013-04-18 06:08:00,
2013-04-18 01:14:00,73.8,67.6,29.52,South,184,0.0,11.0,81,0.00,,,0.00,meteohub,2013-04-18 06:14:00,
2013-04-18 01:18:00,73.9,67.8,29.52,SSE,153,0.0,9.0,81,0.00,,,0.00,meteohub,2013-04-18 06:18:00,
2013-04-18 01:24:00,73.9,67.8,29.52,South,175,5.0,9.0,81,0.00,,,0.00,meteohub,2013-04-18 06:24:00,
2013-04-18 01:29:00,73.9,67.8,29.53,South,182,0.0,9.0,81,0.00,,,0.00,meteohub,2013-04-18 06:29:00,
2013-04-18 01:34:00,73.9,67.8,29.52,SE,140,0.0,11.0,81,0.00,,,0.00,meteohub,2013-04-18 06:34:00,
2013-04-18 01:39:00,73.9,67.8,29.52,SE,130,0.0,11.0,81,0.00,,,0.00,meteohub,2013-04-18 06:39:00,
2013-04-18 01:44:00,73.9,67.8,29.52,SSE,150,0.0,9.0,81,0.00,,,0.00,meteohub,2013-04-18 06:44:00,
2013-04-18 01:49:00,73.9,67.8,29.52,South,184,0.0,9.0,81,0.00,,,0.00,meteohub,2013-04-18 06:49:00,
2013-04-18 01:54:00,73.9,67.8,29.51,SSE,166,0.0,8.0,81,0.00,,,0.00,meteohub,2013-04-18 06:54:00,
2013-04-18 01:59:00,74.1,68.0,29.52,SW,232,4.0,8.0,81,0.00,,,0.00,meteohub,2013-04-18 06:59:00,
2013-04-18 02:04:00,74.3,68.0,29.51,SW,229,0.0,8.0,81,0.00,,,0.00,meteohub,2013-04-18 07:04:00,
2013-04-18 02:09:00,74.5,67.8,29.52,SW,221,0.0,8.0,80,0.00,,,0.00,meteohub,2013-04-18 07:09:00,
2013-04-18 02:14:00,74.5,67.8,29.53,West,265,6.0,7.0,80,0.00,,,0.00,meteohub,2013-04-18 07:14:00,
2013-04-18 02:19:00,74.5,67.8,29.54,WNW,282,13.0,13.0,80,0.00,,,0.00,meteohub,2013-04-18 07:19:00,
2013-04-18 02:24:00,74.7,68.0,29.54,West,273,12.0,12.0,80,0.00,,,0.00,meteohub,2013-04-18 07:24:00,
2013-04-18 02:29:00,73.4,59.5,29.59,NW,323,14.0,28.0,62,0.00,,,0.00,meteohub,2013-04-18 07:29:00,
2013-04-18 02:34:00,67.3,54.7,29.61,NNW,348,15.0,28.0,64,0.00,,,0.00,meteohub,2013-04-18 07:34:00,
2013-04-18 02:39:00,61.0,52.7,29.62,NNW,342,13.0,35.0,74,0.00,,,0.00,meteohub,2013-04-18 07:39:00,
2013-04-18 02:44:00,58.6,52.5,29.65,NNE,18,9.0,35.0,80,0.00,,,0.00,meteohub,2013-04-18 07:44:00,
2013-04-18 02:49:00,57.4,52.0,29.62,NNW,329,22.0,35.0,82,0.03,,,0.00,meteohub,2013-04-18 07:49:00,
2013-04-18 02:54:00,55.0,50.9,29.67,NW,304,9.0,35.0,86,0.03,,,0.00,meteohub,2013-04-18 07:54:00,
2013-04-18 02:59:00,54.1,50.0,29.71,North,350,16.0,31.0,86,0.10,,,0.08,meteohub,2013-04-18 07:59:00,
2013-04-18 03:04:00,53.1,49.3,29.67,NW,321,20.0,31.0,87,0.10,,,0.08,meteohub,2013-04-18 08:04:00,
2013-04-18 03:09:00,52.3,48.9,29.68,North,355,18.0,31.0,88,0.10,,,0.16,meteohub,2013-04-18 08:09:00,
2013-04-18 03:14:00,52.2,48.7,29.68,NNW,345,17.0,31.0,88,0.17,,,0.16,meteohub,2013-04-18 08:14:00,
2013-04-18 03:19:00,52.0,48.9,29.67,North,349,18.0,31.0,89,0.17,,,0.16,meteohub,2013-04-18 08:19:00,
2013-04-18 03:24:00,51.6,48.6,29.67,North,5,17.0,31.0,89,0.17,,,0.18,meteohub,2013-04-18 08:24:00,
2013-04-18 03:29:00,51.4,48.6,29.68,NNW,330,14.0,30.0,90,0.19,,,0.18,meteohub,2013-04-18 08:29:00,
2013-04-18 03:34:00,51.1,47.7,29.67,North,355,14.0,30.0,88,0.19,,,0.18,meteohub,2013-04-18 08:34:00,
2013-04-18 03:39:00,50.5,46.8,29.68,NNW,337,26.0,29.0,87,0.20,,,0.19,meteohub,2013-04-18 08:39:00,
2013-04-18 03:44:00,50.0,46.9,29.69,NW,319,19.0,29.0,89,0.20,,,0.19,meteohub,2013-04-18 08:44:00,
2013-04-18 03:49:00,49.6,45.9,29.69,NNW,335,11.0,29.0,87,0.16,,,0.20,meteohub,2013-04-18 08:49:00,
2013-04-18 03:54:00,49.6,45.7,29.70,WNW,301,17.0,31.0,86,0.16,,,0.20,meteohub,2013-04-18 08:54:00,
2013-04-18 03:59:00,49.5,44.8,29.72,NNE,30,17.0,25.0,84,0.09,,,0.20,meteohub,2013-04-18 08:59:00,
2013-04-18 04:04:00,49.3,44.4,29.73,NNW,328,15.0,25.0,83,0.09,,,0.20,meteohub,2013-04-18 09:04:00,
2013-04-18 04:09:00,49.1,44.2,29.73,NNW,333,9.0,25.0,83,0.09,,,0.20,meteohub,2013-04-18 09:09:00,
2013-04-18 04:14:00,48.9,44.1,29.74,North,355,9.0,24.0,83,0.03,,,0.20,meteohub,2013-04-18 09:14:00,
2013-04-18 04:19:00,48.7,44.1,29.73,NNW,330,8.0,24.0,84,0.03,,,0.20,meteohub,2013-04-18 09:19:00,
2013-04-18 04:24:00,48.6,43.7,29.73,NNW,337,21.0,24.0,83,0.03,,,0.20,meteohub,2013-04-18 09:24:00,
2013-04-18 04:29:00,48.6,43.9,29.72,North,355,16.0,24.0,84,0.01,,,0.20,meteohub,2013-04-18 09:29:00,
2013-04-18 04:34:00,48.4,43.2,29.73,NW,322,22.0,24.0,82,0.01,,,0.20,meteohub,2013-04-18 09:34:00,
2013-04-18 04:39:00,48.2,42.6,29.74,North,0,15.0,29.0,81,0.00,,,0.20,meteohub,2013-04-18 09:39:00,
2013-04-18 04:44:00,48.0,42.4,29.74,NNW,328,19.0,29.0,81,0.00,,,0.20,meteohub,2013-04-18 09:44:00,
2013-04-18 04:49:00,47.8,42.6,29.74,NNW,345,15.0,29.0,82,0.00,,,0.20,meteohub,2013-04-18 09:49:00,
2013-04-18 04:54:00,47.8,43.0,29.74,NNW,341,18.0,27.0,83,0.00,,,0.20,meteohub,2013-04-18 09:54:00,
2013-04-18 04:59:00,47.7,42.4,29.74,WNW,288,13.0,27.0,82,0.00,,,0.20,meteohub,2013-04-18 09:59:00,
2013-04-18 05:04:00,47.5,42.3,29.74,NNW,338,12.0,27.0,82,0.00,,,0.20,meteohub,2013-04-18 10:04:00,
2013-04-18 05:09:00,47.3,42.4,29.75,NE,34,9.0,27.0,83,0.00,,,0.20,meteohub,2013-04-18 10:09:00,
2013-04-18 05:15:00,47.1,41.4,29.76,NNW,339,8.0,27.0,80,0.00,,,0.20,meteohub,2013-04-18 10:15:00,
2013-04-18 05:20:00,47.1,40.6,29.76,NW,325,12.0,27.0,78,0.00,,,0.20,meteohub,2013-04-18 10:20:00,
2013-04-18 05:25:00,46.9,40.5,29.78,NNW,348,16.0,27.0,78,0.00,,,0.20,meteohub,2013-04-18 10:25:00,
2013-04-18 05:30:00,46.8,40.3,29.76,NNW,336,13.0,27.0,78,0.00,,,0.20,meteohub,2013-04-18 10:30:00,
2013-04-18 05:35:00,46.8,40.6,29.77,NNW,332,17.0,27.0,79,0.00,,,0.20,meteohub,2013-04-18 10:35:00,
2013-04-18 05:40:00,46.8,40.3,29.79,NNW,346,18.0,27.0,78,0.00,,,0.20,meteohub,2013-04-18 10:40:00,
2013-04-18 05:45:00,46.8,40.6,29.80,NNW,338,8.0,25.0,79,0.00,,,0.20,meteohub,2013-04-18 10:45:00,
2013-04-18 05:50:00,46.8,40.3,29.81,NNW,346,8.0,25.0,78,0.00,,,0.20,meteohub,2013-04-18 10:50:00,
2013-04-18 05:55:00,46.6,39.0,29.81,NNW,346,17.0,25.0,75,0.00,,,0.20,meteohub,2013-04-18 10:55:00,
2013-04-18 06:00:00,46.2,39.0,29.80,NNW,336,11.0,25.0,76,0.00,,,0.20,meteohub,2013-04-18 11:00:00,
2013-04-18 06:05:00,46.0,38.8,29.80,NNW,328,17.0,25.0,76,0.00,,,0.20,meteohub,2013-04-18 11:05:00,
2013-04-18 06:10:00,45.9,38.7,29.81,NW,318,21.0,24.0,76,0.00,,,0.20,meteohub,2013-04-18 11:10:00,
2013-04-18 06:15:00,45.9,38.3,29.82,North,355,17.0,24.0,75,0.00,,,0.20,meteohub,2013-04-18 11:15:00,
2013-04-18 06:20:00,45.7,37.9,29.82,WNW,290,14.0,24.0,74,0.00,,,0.20,meteohub,2013-04-18 11:20:00,
2013-04-18 06:25:00,45.5,37.8,29.82,NNW,333,18.0,24.0,74,0.00,,,0.20,meteohub,2013-04-18 11:25:00,
2013-04-18 06:30:00,45.3,37.9,29.82,North,355,13.0,24.0,75,0.00,,,0.20,meteohub,2013-04-18 11:30:00,
2013-04-18 06:35:00,45.3,37.6,29.83,NNW,342,20.0,24.0,74,0.00,,,0.20,meteohub,2013-04-18 11:35:00,
2013-04-18 06:40:00,45.1,37.8,29.83,NW,319,15.0,30.0,75,0.00,,,0.20,meteohub,2013-04-18 11:40:00,
2013-04-18 06:45:00,45.1,37.9,29.84,North,0,9.0,30.0,76,0.00,,,0.20,meteohub,2013-04-18 11:45:00,
2013-04-18 06:50:00,45.1,37.8,29.86,North,355,14.0,30.0,75,0.00,,,0.20,meteohub,2013-04-18 11:50:00,
2013-04-18 06:55:00,45.0,37.2,29.85,NNW,329,10.0,30.0,74,0.00,,,0.20,meteohub,2013-04-18 11:55:00,
2013-04-18 07:00:00,45.0,37.9,29.86,North,350,15.0,30.0,76,0.00,,,0.20,meteohub,2013-04-18 12:00:00,
2013-04-18 07:05:00,44.8,37.4,29.86,North,5,6.0,30.0,75,0.00,,,0.20,meteohub,2013-04-18 12:05:00,
2013-04-18 07:10:00,44.8,37.4,29.87,NNW,336,6.0,22.0,75,0.00,,,0.20,meteohub,2013-04-18 12:10:00,
2013-04-18 07:15:00,44.6,37.2,29.87,WSW,254,7.0,22.0,75,0.00,,,0.20,meteohub,2013-04-18 12:15:00,
2013-04-18 07:20:00,44.4,37.4,29.87,NNE,21,9.0,22.0,76,0.00,,,0.20,meteohub,2013-04-18 12:20:00,
2013-04-18 07:25:00,44.4,37.4,29.87,NNW,342,16.0,22.0,76,0.00,,,0.20,meteohub,2013-04-18 12:25:00,
2013-04-18 07:30:00,44.2,37.2,29.88,NNW,327,7.0,22.0,76,0.00,,,0.20,meteohub,2013-04-18 12:30:00,
2013-04-18 07:35:00,44.2,36.5,29.88,NW,321,20.0,20.0,74,0.00,,,0.20,meteohub,2013-04-18 12:35:00,
2013-04-18 07:40:00,44.2,36.5,29.88,NNW,335,13.0,19.0,74,0.00,,,0.20,meteohub,2013-04-18 12:40:00,
2013-04-18 07:45:00,44.2,36.5,29.89,NNW,331,15.0,19.0,74,0.00,,,0.20,meteohub,2013-04-18 12:45:00,
2013-04-18 07:50:00,44.1,36.0,29.91,North,5,10.0,19.0,73,0.00,,,0.20,meteohub,2013-04-18 12:50:00,
2013-04-18 07:55:00,44.1,36.0,29.90,NW,316,17.0,19.0,73,0.00,,,0.20,meteohub,2013-04-18 12:55:00,
2013-04-18 08:00:00,44.1,36.0,29.90,NNW,340,14.0,21.0,73,0.00,,,0.20,meteohub,2013-04-18 13:00:00,
2013-04-18 08:05:00,44.1,36.0,29.89,NW,317,17.0,21.0,73,0.00,,,0.20,meteohub,2013-04-18 13:05:00,
2013-04-18 08:10:00,44.1,35.6,29.90,NNW,329,11.0,21.0,72,0.00,,,0.20,meteohub,2013-04-18 13:10:00,
2013-04-18 08:15:00,44.1,35.6,29.90,NNW,341,11.0,21.0,72,0.00,,,0.20,meteohub,2013-04-18 13:15:00,
2013-04-18 08:21:00,44.1,35.6,29.90,North,355,7.0,21.0,72,0.00,,,0.20,meteohub,2013-04-18 13:21:00,
2013-04-18 08:26:00,44.2,35.8,29.90,NW,323,18.0,22.0,72,0.00,,,0.20,meteohub,2013-04-18 13:26:00,
2013-04-18 08:31:00,44.2,35.8,29.90,NW,321,12.0,22.0,72,0.00,,,0.20,meteohub,2013-04-18 13:31:00,
2013-04-18 08:36:00,44.4,35.2,29.91,NNW,329,20.0,22.0,70,0.00,,,0.20,meteohub,2013-04-18 13:36:00,
2013-04-18 08:41:00,44.8,34.9,29.92,North,355,15.0,22.0,68,0.00,,,0.20,meteohub,2013-04-18 13:41:00,
2013-04-18 08:46:00,44.8,34.5,29.92,North,355,8.0,30.0,67,0.00,,,0.20,meteohub,2013-04-18 13:46:00,
2013-04-18 08:51:00,44.8,34.5,29.92,North,355,14.0,30.0,67,0.00,,,0.20,meteohub,2013-04-18 13:51:00,
2013-04-18 08:56:00,44.8,34.2,29.92,NNE,13,10.0,30.0,66,0.00,,,0.20,meteohub,2013-04-18 13:56:00,
2013-04-18 09:01:00,44.6,34.3,29.92,NNW,331,17.0,30.0,67,0.00,,,0.20,meteohub,2013-04-18 14:01:00,
2013-04-18 09:06:00,44.2,34.0,29.93,NNW,331,12.0,30.0,67,0.00,,,0.20,meteohub,2013-04-18 14:06:00,
2013-04-18 09:11:00,44.2,34.3,29.94,NNW,334,14.0,27.0,68,0.00,,,0.20,meteohub,2013-04-18 14:11:00,
2013-04-18 09:17:00,44.6,34.7,29.93,NNW,338,15.0,27.0,68,0.00,,,0.20,meteohub,2013-04-18 14:17:00,
2013-04-18 09:22:00,45.0,35.1,29.93,North,0,13.0,27.0,68,0.00,,,0.20,meteohub,2013-04-18 14:22:00,
2013-04-18 09:27:00,45.1,35.2,29.94,NNW,335,17.0,27.0,68,0.00,,,0.20,meteohub,2013-04-18 14:27:00,
2013-04-18 09:32:00,45.1,35.2,29.94,NNW,338,16.0,27.0,68,0.00,,,0.20,meteohub,2013-04-18 14:32:00,
2013-04-18 09:37:00,45.9,35.6,29.93,NW,322,12.0,21.0,67,0.00,,,0.20,meteohub,2013-04-18 14:37:00,
2013-04-18 09:42:00,46.0,35.8,29.94,NNW,336,12.0,21.0,67,0.00,,,0.20,meteohub,2013-04-18 14:42:00,
2013-04-18 09:47:00,46.0,35.2,29.94,NNW,336,15.0,21.0,66,0.00,,,0.20,meteohub,2013-04-18 14:47:00,
2013-04-18 09:52:00,46.0,34.5,29.95,NNW,340,15.0,21.0,64,0.00,,,0.20,meteohub,2013-04-18 14:52:00,
2013-04-18 09:57:00,45.9,34.3,29.95,NNW,329,7.0,27.0,64,0.00,,,0.20,meteohub,2013-04-18 14:57:00,
2013-04-18 10:02:00,46.0,34.2,29.96,NW,323,21.0,27.0,63,0.00,,,0.20,meteohub,2013-04-18 15:02:00,
2013-04-18 10:07:00,46.0,34.5,29.95,NW,315,12.0,27.0,64,0.00,,,0.20,meteohub,2013-04-18 15:07:00,
2013-04-18 10:12:00,46.0,34.2,29.95,WNW,300,16.0,27.0,63,0.00,,,0.20,meteohub,2013-04-18 15:12:00,
2013-04-18 10:17:00,46.2,34.3,29.96,NW,326,17.0,27.0,63,0.00,,,0.20,meteohub,2013-04-18 15:17:00,
2013-04-18 10:22:00,46.4,34.5,29.96,North,355,14.0,26.0,63,0.00,,,0.20,meteohub,2013-04-18 15:22:00,
2013-04-18 10:27:00,46.8,34.9,29.96,NNW,340,11.0,26.0,63,0.00,,,0.20,meteohub,2013-04-18 15:27:00,
2013-04-18 10:32:00,46.9,34.5,29.96,NE,38,11.0,26.0,62,0.00,,,0.20,meteohub,2013-04-18 15:32:00,
2013-04-18 10:37:00,46.9,34.2,29.96,WNW,298,16.0,26.0,61,0.00,,,0.20,meteohub,2013-04-18 15:37:00,
2013-04-18 10:42:00,47.5,34.3,29.96,WNW,295,11.0,23.0,60,0.00,,,0.20,meteohub,2013-04-18 15:42:00,
2013-04-18 10:47:00,47.3,33.3,29.96,North,355,15.0,23.0,58,0.00,,,0.20,meteohub,2013-04-18 15:47:00,
2013-04-18 10:52:00,47.3,32.9,29.96,NNE,23,14.0,23.0,57,0.00,,,0.20,meteohub,2013-04-18 15:52:00,
2013-04-18 10:57:00,47.8,34.2,29.96,North,355,10.0,23.0,59,0.00,,,0.20,meteohub,2013-04-18 15:57:00,
2013-04-18 11:02:00,48.2,34.2,29.96,NE,38,6.0,23.0,58,0.00,,,0.20,meteohub,2013-04-18 16:02:00,
2013-04-18 11:07:00,48.4,33.8,29.96,NNW,341,17.0,23.0,57,0.00,,,0.20,meteohub,2013-04-18 16:07:00,
2013-04-18 11:12:00,48.6,34.0,29.96,NNW,335,21.0,21.0,57,0.00,,,0.20,meteohub,2013-04-18 16:12:00,
2013-04-18 11:17:00,48.7,34.2,29.96,NNE,12,6.0,20.0,57,0.00,,,0.20,meteohub,2013-04-18 16:17:00,
2013-04-18 11:22:00,48.9,34.0,29.97,NNW,336,16.0,20.0,56,0.00,,,0.20,meteohub,2013-04-18 16:22:00,
2013-04-18 11:27:00,48.9,34.3,29.97,North,9,14.0,20.0,57,0.00,,,0.20,meteohub,2013-04-18 16:27:00,
2013-04-18 11:32:00,49.3,33.8,29.97,North,0,14.0,20.0,55,0.00,,,0.20,meteohub,2013-04-18 16:32:00,
2013-04-18 11:37:00,49.5,34.0,29.97,NNE,20,8.0,22.0,55,0.00,,,0.20,meteohub,2013-04-18 16:37:00,
2013-04-18 11:42:00,49.5,33.4,29.97,NNE,13,5.0,22.0,54,0.00,,,0.20,meteohub,2013-04-18 16:42:00,
2013-04-18 11:47:00,49.3,33.3,29.97,NNW,339,12.0,22.0,54,0.00,,,0.20,meteohub,2013-04-18 16:47:00,
2013-04-18 11:52:00,49.3,33.3,29.97,NNW,333,11.0,22.0,54,0.00,,,0.20,meteohub,2013-04-18 16:52:00,
2013-04-18 11:57:00,49.6,33.6,29.96,NNW,332,10.0,-999.0,54,0.00,,,0.20,meteohub,2013-04-18 16:57:00,
2013-04-18 12:02:00,50.2,35.1,29.96,NW,310,13.0,24.0,56,0.00,,,0.20,meteohub,2013-04-18 17:02:00,
2013-04-18 12:07:00,51.1,34.5,29.97,NNW,336,13.0,24.0,53,0.00,,,0.20,meteohub,2013-04-18 17:07:00,
2013-04-18 12:12:00,51.3,34.2,29.96,NNW,333,10.0,24.0,52,0.00,,,0.20,meteohub,2013-04-18 17:12:00,
2013-04-18 12:17:00,50.7,33.8,29.97,NNW,338,16.0,24.0,52,0.00,,,0.20,meteohub,2013-04-18 17:17:00,
2013-04-18 12:22:00,50.7,34.7,29.96,NW,318,9.0,24.0,54,0.00,,,0.20,meteohub,2013-04-18 17:22:00,
2013-04-18 12:27:00,51.3,34.2,29.96,NW,312,13.0,22.0,52,0.00,,,0.20,meteohub,2013-04-18 17:27:00,
2013-04-18 12:32:00,51.4,34.3,29.96,NW,321,13.0,22.0,52,0.00,,,0.20,meteohub,2013-04-18 17:32:00,
2013-04-18 12:37:00,52.0,34.3,29.96,NNW,348,7.0,22.0,51,0.00,,,0.20,meteohub,2013-04-18 17:37:00,
2013-04-18 12:42:00,52.3,34.2,29.96,NNW,342,10.0,22.0,50,0.00,,,0.20,meteohub,2013-04-18 17:42:00,
2013-04-18 12:47:00,52.9,35.8,29.96,NNW,331,14.0,22.0,52,0.00,,,0.20,meteohub,2013-04-18 17:47:00,
2013-04-18 12:52:00,53.2,34.5,29.96,NNW,341,12.0,17.0,49,0.00,,,0.20,meteohub,2013-04-18 17:52:00,
2013-04-18 12:57:00,53.1,33.8,29.97,NNW,339,16.0,17.0,48,0.00,,,0.20,meteohub,2013-04-18 17:57:00,
2013-04-18 13:02:00,53.1,34.9,29.96,NNW,343,14.0,17.0,50,0.00,,,0.20,meteohub,2013-04-18 18:02:00,
2013-04-18 13:07:00,54.0,35.2,29.96,NW,311,15.0,17.0,49,0.00,,,0.20,meteohub,2013-04-18 18:07:00,
2013-04-18 13:12:00,54.0,34.7,29.96,NNW,345,8.0,17.0,48,0.00,,,0.20,meteohub,2013-04-18 18:12:00,
2013-04-18 13:17:00,53.8,34.5,29.96,NW,322,10.0,23.0,48,0.00,,,0.20,meteohub,2013-04-18 18:17:00,
2013-04-18 13:22:00,53.8,35.1,29.96,NNE,16,12.0,23.0,49,0.00,,,0.20,meteohub,2013-04-18 18:22:00,
2013-04-18 13:27:00,54.7,35.4,29.96,WNW,300,6.0,23.0,48,0.00,,,0.20,meteohub,2013-04-18 18:27:00,
2013-04-18 13:32:00,55.2,34.2,29.96,NNW,328,10.0,21.0,45,0.00,,,0.20,meteohub,2013-04-18 18:32:00,
2013-04-18 13:37:00,55.2,34.9,29.96,NNW,345,12.0,21.0,46,0.00,,,0.20,meteohub,2013-04-18 18:37:00,
2013-04-18 13:42:00,55.2,34.2,29.96,NNW,344,14.0,20.0,45,0.00,,,0.20,meteohub,2013-04-18 18:42:00,
2013-04-18 13:47:00,55.2,34.9,29.96,North,11,1.0,20.0,46,0.00,,,0.20,meteohub,2013-04-18 18:47:00,
2013-04-18 13:52:00,55.4,34.9,29.96,NNW,340,11.0,21.0,46,0.00,,,0.20,meteohub,2013-04-18 18:52:00,
2013-04-18 13:57:00,55.8,34.7,29.96,North,11,6.0,21.0,45,0.00,,,0.20,meteohub,2013-04-18 18:57:00,
2013-04-18 14:02:00,55.9,34.3,29.96,NNW,340,15.0,21.0,44,0.00,,,0.20,meteohub,2013-04-18 19:02:00,
2013-04-18 14:07:00,55.8,34.2,29.96,NNW,328,10.0,21.0,44,0.00,,,0.20,meteohub,2013-04-18 19:07:00,
2013-04-18 14:12:00,56.5,35.4,29.96,NW,317,6.0,20.0,45,0.00,,,0.20,meteohub,2013-04-18 19:12:00,
2013-04-18 14:18:00,56.7,34.3,29.96,North,351,8.0,20.0,43,0.00,,,0.20,meteohub,2013-04-18 19:18:00,
2013-04-18 14:23:00,56.5,33.1,29.96,NW,311,14.0,22.0,41,0.00,,,0.20,meteohub,2013-04-18 19:23:00,
2013-04-18 14:28:00,56.5,33.1,29.96,North,5,8.0,22.0,41,0.00,,,0.20,meteohub,2013-04-18 19:28:00,
2013-04-18 14:33:00,56.5,33.6,29.96,NW,321,9.0,24.0,42,0.00,,,0.20,meteohub,2013-04-18 19:33:00,
2013-04-18 14:38:00,56.5,32.4,29.96,NNW,338,8.0,24.0,40,0.00,,,0.20,meteohub,2013-04-18 19:38:00,
2013-04-18 14:43:00,56.7,32.5,29.96,NNW,342,13.0,24.0,40,0.00,,,0.20,meteohub,2013-04-18 19:43:00,
2013-04-18 14:48:00,57.4,32.5,29.96,North,349,8.0,24.0,39,0.00,,,0.20,meteohub,2013-04-18 19:48:00,
2013-04-18 14:53:00,57.7,32.9,29.96,NW,313,9.0,24.0,39,0.00,,,0.20,meteohub,2013-04-18 19:53:00,
2013-04-18 14:58:00,57.6,32.2,29.96,NW,323,10.0,24.0,38,0.00,,,0.20,meteohub,2013-04-18 19:58:00,
2013-04-18 15:03:00,56.8,32.2,29.96,NNW,340,13.0,21.0,39,0.00,,,0.20,meteohub,2013-04-18 20:03:00,
2013-04-18 15:08:00,57.0,31.6,29.96,NW,322,6.0,21.0,38,0.00,,,0.20,meteohub,2013-04-18 20:08:00,
2013-04-18 15:13:00,57.4,32.5,29.96,NW,315,9.0,24.0,39,0.00,,,0.20,meteohub,2013-04-18 20:13:00,
2013-04-18 15:18:00,57.7,32.9,29.96,NW,325,10.0,24.0,39,0.00,,,0.20,meteohub,2013-04-18 20:18:00,
2013-04-18 15:23:00,58.3,32.2,29.96,NNW,328,14.0,24.0,37,0.00,,,0.20,meteohub,2013-04-18 20:23:00,
2013-04-18 15:28:00,57.7,32.9,29.96,NNW,344,0.0,22.0,39,0.00,,,0.20,meteohub,2013-04-18 20:28:00,
2013-04-18 15:33:00,57.9,31.8,29.96,NNE,15,12.0,22.0,37,0.00,,,0.20,meteohub,2013-04-18 20:33:00,
2013-04-18 15:38:00,57.9,31.8,29.96,NW,311,14.0,22.0,37,0.00,,,0.20,meteohub,2013-04-18 20:38:00,
2013-04-18 15:43:00,58.1,31.3,29.95,NW,306,4.0,22.0,36,0.00,,,0.20,meteohub,2013-04-18 20:43:00,
2013-04-18 15:49:00,58.6,31.8,29.95,NNW,340,11.0,22.0,36,0.00,,,0.20,meteohub,2013-04-18 20:49:00,
2013-04-18 15:54:00,59.0,31.5,29.95,NNW,336,10.0,21.0,35,0.00,,,0.20,meteohub,2013-04-18 20:54:00,
2013-04-18 15:59:00,59.2,31.5,29.95,NNW,338,13.0,21.0,35,0.00,,,0.20,meteohub,2013-04-18 20:59:00,
2013-04-18 16:04:00,58.8,31.3,29.96,NNW,333,16.0,21.0,35,0.00,,,0.20,meteohub,2013-04-18 21:04:00,
2013-04-18 16:09:00,58.6,31.8,29.95,NNE,15,9.0,21.0,36,0.00,,,0.20,meteohub,2013-04-18 21:09:00,
2013-04-18 16:14:00,59.0,30.7,29.96,NW,326,11.0,20.0,34,0.00,,,0.20,meteohub,2013-04-18 21:14:00,
2013-04-18 16:19:00,59.2,31.5,29.95,NNE,29,18.0,20.0,35,0.00,,,0.20,meteohub,2013-04-18 21:19:00,
2013-04-18 16:24:00,59.4,30.9,29.95,NNW,338,8.0,21.0,34,0.00,,,0.20,meteohub,2013-04-18 21:24:00,
2013-04-18 16:29:00,59.5,31.1,29.96,NW,320,6.0,21.0,34,0.00,,,0.20,meteohub,2013-04-18 21:29:00,
2013-04-18 16:34:00,59.5,31.1,29.95,North,355,7.0,19.0,34,0.00,,,0.20,meteohub,2013-04-18 21:34:00,
2013-04-18 16:39:00,59.2,30.7,29.95,NNW,348,14.0,19.0,34,0.00,,,0.20,meteohub,2013-04-18 21:39:00,
2013-04-18 16:44:00,59.4,31.6,29.95,NNE,13,11.0,19.0,35,0.00,,,0.20,meteohub,2013-04-18 21:44:00,
2013-04-18 16:49:00,59.5,30.4,29.96,NNW,327,14.0,22.0,33,0.00,,,0.20,meteohub,2013-04-18 21:49:00,
2013-04-18 16:54:00,59.7,30.6,29.96,NNW,331,18.0,22.0,33,0.00,,,0.20,meteohub,2013-04-18 21:54:00,
2013-04-18 16:59:00,59.5,28.9,29.96,NW,325,18.0,22.0,31,0.00,,,0.20,meteohub,2013-04-18 21:59:00,
2013-04-18 17:04:00,59.2,29.3,29.96,NNE,19,9.0,22.0,32,0.00,,,0.20,meteohub,2013-04-18 22:04:00,
2013-04-18 17:09:00,59.2,29.3,29.96,NNW,332,10.0,22.0,32,0.00,,,0.20,meteohub,2013-04-18 22:09:00,
2013-04-18 17:14:00,59.5,29.7,29.96,North,5,7.0,22.0,32,0.00,,,0.20,meteohub,2013-04-18 22:14:00,
2013-04-18 17:19:00,59.7,28.9,29.96,NNE,23,8.0,22.0,31,0.00,,,0.20,meteohub,2013-04-18 22:19:00,
2013-04-18 17:24:00,59.5,28.9,29.96,NNW,348,13.0,22.0,31,0.00,,,0.20,meteohub,2013-04-18 22:24:00,
2013-04-18 17:29:00,59.7,28.9,29.96,NNW,335,21.0,21.0,31,0.00,,,0.20,meteohub,2013-04-18 22:29:00,
2013-04-18 17:34:00,59.7,28.9,29.97,NNW,344,11.0,20.0,31,0.00,,,0.20,meteohub,2013-04-18 22:34:00,
2013-04-18 17:39:00,59.7,28.9,29.97,NW,318,12.0,21.0,31,0.00,,,0.20,meteohub,2013-04-18 22:39:00,
2013-04-18 17:44:00,59.5,28.9,29.97,NW,323,12.0,21.0,31,0.00,,,0.20,meteohub,2013-04-18 22:44:00,
2013-04-18 17:49:00,59.5,28.9,29.98,NNW,336,12.0,21.0,31,0.00,,,0.20,meteohub,2013-04-18 22:49:00,
2013-04-18 17:54:00,59.4,28.8,29.98,NNE,23,5.0,21.0,31,0.00,,,0.20,meteohub,2013-04-18 22:54:00,
2013-04-18 17:59:00,59.7,28.2,29.98,NW,309,13.0,21.0,30,0.00,,,0.20,meteohub,2013-04-18 22:59:00,
2013-04-18 18:04:00,59.5,28.0,29.98,NNE,19,9.0,21.0,30,0.00,,,0.20,meteohub,2013-04-18 23:04:00,
2013-04-18 18:09:00,59.5,28.9,29.99,NNW,346,14.0,21.0,31,0.00,,,0.20,meteohub,2013-04-18 23:09:00,
2013-04-18 18:14:00,59.9,28.4,29.99,NNW,348,14.0,19.0,30,0.00,,,0.20,meteohub,2013-04-18 23:14:00,
2013-04-18 18:19:00,59.9,28.4,29.99,NNW,341,6.0,19.0,30,0.00,,,0.20,meteohub,2013-04-18 23:19:00,
2013-04-18 18:24:00,60.1,27.7,29.99,North,355,8.0,19.0,29,0.00,,,0.20,meteohub,2013-04-18 23:24:00,
2013-04-18 18:29:00,59.7,27.3,29.99,NNW,339,16.0,19.0,29,0.00,,,0.20,meteohub,2013-04-18 23:29:00,
2013-04-18 18:34:00,59.4,27.9,30.00,NNE,21,5.0,20.0,30,0.00,,,0.20,meteohub,2013-04-18 23:34:00,
2013-04-18 18:39:00,59.4,27.9,29.99,North,10,13.0,20.0,30,0.00,,,0.20,meteohub,2013-04-18 23:39:00,
2013-04-18 18:44:00,59.4,27.9,30.00,NW,321,9.0,20.0,30,0.00,,,0.20,meteohub,2013-04-18 23:44:00,
2013-04-18 18:49:00,59.7,28.2,30.01,NNW,341,8.0,20.0,30,0.00,,,0.20,meteohub,2013-04-18 23:49:00,
2013-04-18 18:55:00,59.5,27.3,30.01,NW,313,8.0,20.0,29,0.00,,,0.20,meteohub,2013-04-18 23:55:00,
2013-04-18 19:00:00,59.5,27.3,30.01,North,355,7.0,20.0,29,0.00,,,0.20,meteohub,2013-04-19 00:00:00,
2013-04-18 19:05:00,59.4,27.1,30.01,ENE,62,5.0,20.0,29,0.00,,,0.20,meteohub,2013-04-19 00:05:00,
2013-04-18 19:10:00,59.4,27.1,30.01,NW,315,7.0,17.0,29,0.00,,,0.20,meteohub,2013-04-19 00:10:00,
2013-04-18 19:15:00,59.2,27.0,30.02,North,0,8.0,17.0,29,0.00,,,0.20,meteohub,2013-04-19 00:15:00,
2013-04-18 19:20:00,59.2,27.0,30.02,NNW,343,14.0,18.0,29,0.00,,,0.20,meteohub,2013-04-19 00:20:00,
2013-04-18 19:25:00,59.0,26.8,30.03,NNW,336,4.0,18.0,29,0.00,,,0.20,meteohub,2013-04-19 00:25:00,
2013-04-18 19:30:00,58.8,26.6,30.03,North,355,6.0,18.0,29,0.00,,,0.20,meteohub,2013-04-19 00:30:00,
2013-04-18 19:35:00,58.5,26.2,30.03,NNW,336,9.0,18.0,29,0.00,,,0.20,meteohub,2013-04-19 00:35:00,
2013-04-18 19:40:00,58.5,27.1,30.03,North,355,1.0,18.0,30,0.00,,,0.20,meteohub,2013-04-19 00:40:00,
2013-04-18 19:45:00,58.3,27.0,30.04,NNW,348,8.0,18.0,30,0.00,,,0.20,meteohub,2013-04-19 00:45:00,
2013-04-18 19:50:00,57.9,27.5,30.04,NNW,348,7.0,17.0,31,0.00,,,0.20,meteohub,2013-04-19 00:50:00,
2013-04-18 19:55:00,57.7,26.4,30.04,NNW,339,11.0,17.0,30,0.00,,,0.20,meteohub,2013-04-19 00:55:00,
2013-04-18 20:00:00,57.6,27.1,30.04,North,355,2.0,15.0,31,0.00,,,0.20,meteohub,2013-04-19 01:00:00,
2013-04-18 20:05:00,57.4,27.0,30.04,NNW,343,11.0,15.0,31,0.00,,,0.20,meteohub,2013-04-19 01:05:00,
2013-04-18 20:10:00,56.8,26.6,30.04,NNW,337,7.0,15.0,31,0.00,,,0.20,meteohub,2013-04-19 01:10:00,
2013-04-18 20:15:00,56.7,26.4,30.05,NE,53,5.0,15.0,31,0.00,,,0.20,meteohub,2013-04-19 01:15:00,
2013-04-18 20:20:00,56.5,26.2,30.05,North,355,8.0,14.0,31,0.00,,,0.20,meteohub,2013-04-19 01:20:00,
2013-04-18 20:25:00,56.1,26.6,30.05,NNE,12,4.0,14.0,32,0.00,,,0.20,meteohub,2013-04-19 01:25:00,
2013-04-18 20:30:00,55.9,26.4,30.06,NNW,342,5.0,14.0,32,0.00,,,0.20,meteohub,2013-04-19 01:30:00,
2013-04-18 20:35:00,55.6,27.0,30.06,NNE,28,2.0,14.0,33,0.00,,,0.20,meteohub,2013-04-19 01:35:00,
2013-04-18 20:40:00,55.2,26.6,30.06,North,11,0.0,12.0,33,0.00,,,0.20,meteohub,2013-04-19 01:40:00,
2013-04-18 20:45:00,55.0,27.1,30.07,NNE,12,4.0,12.0,34,0.00,,,0.20,meteohub,2013-04-19 01:45:00,
2013-04-18 20:50:00,54.9,27.7,30.07,North,355,4.0,12.0,35,0.00,,,0.20,meteohub,2013-04-19 01:50:00,
2013-04-18 20:55:00,54.5,27.3,30.08,North,355,8.0,11.0,35,0.00,,,0.20,meteohub,2013-04-19 01:55:00,
2013-04-18 21:00:00,54.1,27.7,30.08,North,5,5.0,11.0,36,0.00,,,0.20,meteohub,2013-04-19 02:00:00,
2013-04-18 21:05:00,54.1,27.7,30.08,NNE,29,0.0,11.0,36,0.00,,,0.20,meteohub,2013-04-19 02:05:00,
2013-04-18 21:10:00,54.0,28.2,30.08,NNW,334,0.0,11.0,37,0.00,,,0.20,meteohub,2013-04-19 02:10:00,
2013-04-18 21:15:00,53.8,28.0,30.09,NE,49,0.0,11.0,37,0.00,,,0.20,meteohub,2013-04-19 02:15:00,
2013-04-18 21:20:00,53.4,27.1,30.09,NNW,339,0.0,11.0,36,0.00,,,0.20,meteohub,2013-04-19 02:20:00,
2013-04-18 21:25:00,53.4,27.9,30.09,North,351,6.0,11.0,37,0.00,,,0.20,meteohub,2013-04-19 02:25:00,
2013-04-18 21:30:00,53.2,28.2,30.10,North,355,4.0,12.0,38,0.00,,,0.20,meteohub,2013-04-19 02:30:00,
2013-04-18 21:35:00,53.1,28.0,30.10,NNE,18,0.0,12.0,38,0.00,,,0.20,meteohub,2013-04-19 02:35:00,
2013-04-18 21:40:00,52.9,28.0,30.10,North,355,1.0,12.0,38,0.00,,,0.20,meteohub,2013-04-19 02:40:00,
2013-04-18 21:45:00,52.5,28.2,30.11,North,9,4.0,12.0,39,0.00,,,0.20,meteohub,2013-04-19 02:45:00,
2013-04-18 21:50:00,52.3,28.0,30.11,NW,311,0.0,9.0,39,0.00,,,0.20,meteohub,2013-04-19 02:50:00,
2013-04-18 21:55:00,52.3,28.0,30.11,NNE,32,4.0,9.0,39,0.00,,,0.20,meteohub,2013-04-19 02:55:00,
2013-04-18 22:00:00,52.2,28.6,30.11,NNW,339,1.0,11.0,40,0.00,,,0.20,meteohub,2013-04-19 03:00:00,
2013-04-18 22:05:00,52.0,28.4,30.12,North,5,0.0,11.0,40,0.00,,,0.20,meteohub,2013-04-19 03:05:00,
2013-04-18 22:10:00,51.8,28.2,30.12,NNE,17,0.0,11.0,40,0.00,,,0.20,meteohub,2013-04-19 03:10:00,
2013-04-18 22:15:00,51.6,28.0,30.12,NNW,346,4.0,10.0,40,0.00,,,0.20,meteohub,2013-04-19 03:15:00,
2013-04-18 22:21:00,51.4,28.6,30.12,NNE,28,9.0,10.0,41,0.00,,,0.20,meteohub,2013-04-19 03:21:00,
2013-04-18 22:26:00,51.3,28.4,30.12,North,5,7.0,10.0,41,0.00,,,0.20,meteohub,2013-04-19 03:26:00,
2013-04-18 22:31:00,51.1,28.2,30.13,NNW,342,0.0,10.0,41,0.00,,,0.20,meteohub,2013-04-19 03:31:00,
2013-04-18 22:36:00,51.1,28.2,30.13,North,0,1.0,10.0,41,0.00,,,0.20,meteohub,2013-04-19 03:36:00,
2013-04-18 22:41:00,50.7,27.9,30.13,NNE,28,5.0,10.0,41,0.00,,,0.20,meteohub,2013-04-19 03:41:00,
2013-04-18 22:46:00,50.7,27.9,30.14,NE,34,3.0,10.0,41,0.00,,,0.20,meteohub,2013-04-19 03:46:00,
2013-04-18 22:51:00,50.5,27.7,30.14,North,5,0.0,12.0,41,0.00,,,0.20,meteohub,2013-04-19 03:51:00,
2013-04-18 22:56:00,50.5,27.7,30.14,NNW,339,0.0,12.0,41,0.00,,,0.20,meteohub,2013-04-19 03:56:00,
2013-04-18 23:01:00,50.5,27.7,30.14,North,350,7.0,12.0,41,0.00,,,0.20,meteohub,2013-04-19 04:01:00,
2013-04-18 23:02:00,50.5,28.2,30.14,WNW,295,5.0,12.0,42,0.00,,,0.20,meteohub,2013-04-19 04:02:00,
2013-04-18 23:07:00,50.4,28.2,30.14,NNW,341,0.0,12.0,42,0.00,,,0.20,meteohub,2013-04-19 04:07:00,
2013-04-18 23:12:00,50.2,28.0,30.14,NNE,32,0.0,11.0,42,0.00,,,0.20,meteohub,2013-04-19 04:12:00,
2013-04-18 23:17:00,49.8,27.7,30.14,NNE,28,0.0,11.0,42,0.00,,,0.20,meteohub,2013-04-19 04:17:00,
2013-04-18 23:22:00,49.8,28.2,30.15,North,355,0.0,9.0,43,0.00,,,0.20,meteohub,2013-04-19 04:22:00,
2013-04-18 23:27:00,49.6,28.0,30.15,NW,311,0.0,9.0,43,0.00,,,0.20,meteohub,2013-04-19 04:27:00,
2013-04-18 23:32:00,49.5,27.9,30.15,NNW,341,0.0,10.0,43,0.00,,,0.20,meteohub,2013-04-19 04:32:00,
2013-04-18 23:37:00,49.3,27.7,30.15,North,355,2.0,10.0,43,0.00,,,0.20,meteohub,2013-04-19 04:37:00,
2013-04-18 23:42:00,49.1,28.0,30.15,NNW,346,0.0,10.0,44,0.00,,,0.20,meteohub,2013-04-19 04:42:00,
2013-04-18 23:47:00,48.9,28.0,30.15,NNE,15,0.0,10.0,44,0.00,,,0.20,meteohub,2013-04-19 04:47:00,
2013-04-18 23:52:00,48.7,28.4,30.16,North,355,0.0,10.0,45,0.00,,,0.20,meteohub,2013-04-19 04:52:00,
2013-04-18 23:57:00,48.7,28.4,30.16,North,349,0.0,10.0,45,0.00,,,0.20,meteohub,2013-04-19 04:57:00,